Whiteman AFB, MO

7:35 PM CST on November 19, 2019 (GMT -0600)
Whiteman Air Force Base

Weather History for KSZL - September, 2019

Change the Weather History Date:

Thursday, September 19, 2019

  Actual Average Record
Temperature  
Mean Temperature 80 °F -  
Max Temperature 91 °F 76 °F 95 °F (2000)
Min Temperature 69 °F 55 °F 44 °F (2003)
Cooling Degree Days 15    
Growing Degree Days 30 (Base 50)    
Moisture  
Dew Point 70 °F    
Average Humidity 78    
Maximum Humidity 100    
Minimum Humidity 50    
Precipitation  
Precipitation 0.00 in - - ()
Sea Level Pressure  
Sea Level Pressure 29.96 in    
Wind  
Wind Speed 6 mph (SSE)    
Max Wind Speed 9 mph    
Max Gust Speed -    
Visibility 10 miles    
Events      
Averages and records for this station are not official NWS values.
T = Trace of Precipitation, MM = Missing Value Source: NWS Daily Summary

Daily Weather History Graph

Daily Weather History Graph

Search for Another Location

Airport or City:

Astronomy

Sep. 19, 2019 Rise Set
Actual Time 6:59 AM CDT 7:16 PM CDT
Civil Twilight 6:32 AM CDT 7:42 PM CDT
Nautical Twilight 6:01 AM CDT 8:13 PM CDT
Astronomical Twilight 5:29 AM CDT 8:45 PM CDT
Moon 10:29 PM CDT (9/19) 12:00 PM CDT (9/19)
Length of Visible Light 13h 10m
Length of Day
12h 17m
Waning Gibbous, 74% of the Moon is Illuminated
Sep 19
Waning Gibbous
Sep 21
Last Quarter
Sep 28
New
Oct 5
First Quarter
Oct 13
Full

Hourly Weather History & Observations

Time (CDT) Temp. Heat Index Dew Point Humidity Pressure Visibility Wind Dir Wind Speed Gust Speed Precip Events Conditions
12:57 AM 74.1 °F - 73.2 °F 97% 29.94 in 10.0 mi SSE 5.8 mph - N/A   Clear
1:56 AM 74.8 °F - 72.0 °F 91% 29.94 in 10.0 mi South 6.9 mph - N/A   Clear
2:56 AM 72.3 °F - 71.6 °F 98% 29.94 in 10.0 mi South 4.6 mph - N/A   Clear
3:57 AM 71.1 °F - 71.1 °F 100% 29.94 in 10.0 mi South 5.8 mph - N/A   Clear
4:56 AM 70.3 °F - 70.3 °F 100% 29.94 in 10.0 mi SSE 4.6 mph - N/A   Clear
5:57 AM 70.0 °F - 70.0 °F 100% 29.94 in 10.0 mi South 5.8 mph - N/A   Partly Cloudy
6:56 AM 69.3 °F - 69.3 °F 100% 29.95 in 10.0 mi South 4.6 mph - N/A   Partly Cloudy
7:56 AM 70.7 °F - 70.7 °F 100% 29.97 in 10.0 mi South 3.5 mph - N/A   Partly Cloudy
8:57 AM 75.4 °F - 71.6 °F 88% 29.99 in 10.0 mi South 5.8 mph - N/A   Partly Cloudy
9:59 AM 81.1 °F 84.9 °F 70.3 °F 70% 29.99 in 10.0 mi South 8.1 mph - N/A   Partly Cloudy
10:55 AM 84.7 °F 89.1 °F 70.2 °F 61% 30.01 in 10.0 mi South 6.9 mph - N/A   Partly Cloudy
11:56 AM 87.8 °F 92.2 °F 69.1 °F 54% 30.00 in 10.0 mi SSW 8.1 mph - N/A   Mostly Cloudy
12:56 PM 88.5 °F 94.0 °F 70.7 °F 55% 29.99 in 10.0 mi South 8.1 mph - N/A   Scattered Clouds
1:56 PM 90.3 °F 95.7 °F 70.2 °F 51% 29.97 in 10.0 mi South 9.2 mph - N/A   Partly Cloudy
2:56 PM 90.9 °F 96.2 °F 69.6 °F 50% 29.95 in 10.0 mi South 8.1 mph - N/A   Scattered Clouds
3:56 PM 91.0 °F 97.1 °F 70.3 °F 51% 29.94 in 10.0 mi SSE 8.1 mph - N/A   Scattered Clouds
4:56 PM 88.3 °F 92.0 °F 68.4 °F 51% 29.93 in 10.0 mi SSE 6.9 mph - N/A   Scattered Clouds
5:56 PM 84.6 °F 87.9 °F 68.5 °F 58% 29.93 in 10.0 mi South 8.1 mph - N/A   Mostly Cloudy
6:56 PM 79.9 °F - 67.8 °F 66% 29.93 in 10.0 mi South 3.5 mph - N/A   Mostly Cloudy
7:56 PM 75.7 °F - 69.1 °F 80% 29.93 in 10.0 mi Calm Calm - N/A   Scattered Clouds
8:56 PM 74.7 °F - 69.4 °F 84% 29.95 in 10.0 mi Calm Calm - N/A   Scattered Clouds
10:56 PM 73.8 °F - 73.8 °F 100% 29.96 in 10.0 mi ESE 5.8 mph - N/A   Clear
11:56 PM 74.3 °F - 72.7 °F 95% 29.96 in 10.0 mi SE 6.9 mph - N/A   Clear